Regional Weather Roundup
Issued by NWS Sterling, VA

Home | Current Version | Previous Version | Graphics & Text | Print | Product List | Glossary On
Versions: 1 2 3 4 5 6 7 8 9 10 11 12 13 14 15 16 17 18 19 20 21 22 23 24 25 26 27 28 29 30 31 32 33 34 35 36 37 38 39 40 41 42 43 44 45 46 47 48 49 50
000
ASUS41 KLWX 021010
RWRLWX

REGIONAL WEATHER ROUNDUP
NATIONAL WEATHER SERVICE BALTIMORE MD/WASHINGTON DC
500 AM EST FRI DEC 02 2016

Note: "FAIR" indicates few or no clouds below 12,000 feet
with no significant weather and/or obstructions to visibility.
 TC=TEMPERATURE CELSIUS

 * =Non NWS site. Station does not report precipitation (e.g. rain,
    snow, etc.), thunder, or fog.

DCZ001-MDZ009-015-VAZ040>042-051-053>054-021100-
WASHINGTON METRO

CITY           SKY/WX    TMP DP  RH WIND       PRES   REMARKS
WASHINGTON NAT PTCLDY    44  27  51 NW8       30.02R
DULLES         MOCLDY    43  26  51 NW10      30.01S
ANDREWS AFB    PTCLDY    42  26  52 NW9       30.00R
FT BELVOIR     PTCLDY    37  29  71 CALM      30.02R
QUANTICO       CLEAR     36  31  82 NW5       30.04R
COLLEGE PARK*  PTCLDY    43  25  49 W6        30.01R
LEESBURG*      CLOUDY    45  32  61 W14G20    30.02S
MANASSAS*      PTCLDY    36  30  80 CALM      30.03R
GAITHERSBURG*  CLOUDY    43  23  45 W5        30.04S

$$

MDZ006>007-011-014-021100-
BALTIMORE METRO

CITY           SKY/WX    TMP DP  RH WIND       PRES   REMARKS
BWI AIRPORT    PTCLDY    42  26  53 W9        29.99S
MD SCIENCE CTR   N/A     43  25  49 MISG      29.99R
ANNAPOLIS      CLEAR     46  26  45 W12       29.99R
FORT MEADE*    PTCLDY    41  27  56 W10G22    30.02S

$$

MDZ012-015-019>023-021100-
MARYLAND EASTERN SHORE

CITY           SKY/WX    TMP DP  RH WIND       PRES   REMARKS
OCEAN CITY     PTCLDY    33  31  92 CALM      30.00R
SALISBURY      PTCLDY    33  30  88 CALM      30.01R
BAY BRIDGE AP* CLEAR     45  28  53 W12       30.00R
CAMBRIDGE*     PTCLDY    43  28  56 NW9G18    30.00S
EASTON*        PTCLDY    45  27  50 NW13      30.03S

$$

MDZ017>025-021100-
SOUTHERN MARYLAND

CITY           SKY/WX    TMP DP  RH WIND       PRES   REMARKS
PATUXENT RIVER CLEAR     37  29  72 SW5       30.01S
ST INIGOES     CLEAR     35  32  88 CALM      30.02R
LEONARDTOWN*   CLEAR     34  30  86 CALM      30.03S

$$

MDZ003>005-021100-
NORTH CENTRAL MARYLAND

CITY           SKY/WX    TMP DP  RH WIND       PRES   REMARKS
FREDERICK*     MOCLDY    41  28  60 W9        30.03S
HAGERSTOWN APT CLOUDY    42  25  50 W10       29.98R
WESTMINSTER*   MOCLDY    37  25  60 W10       29.96S

$$

MDZ501>502-021100-
WESTERN MARYLAND

CITY           SKY/WX    TMP DP  RH WIND       PRES   REMARKS
OAKLAND*       PTCLDY    28  25  86 W13G20    29.93S WCI  18
CUMBERLAND*    NOT AVBL

$$

VAZ025>031-021100-
SHENANDOAH VALLEY

CITY           SKY/WX    TMP DP  RH WIND       PRES   REMARKS
WINCHESTER*    CLOUDY    41  27  56 W16       30.01R
FRONT ROYAL*   CLOUDY    43  28  56 W6        30.01R
LURAY*         PTSUNNY   43  30  61 W7G17     30.01R
NEW MARKET*    FAIR      38  30  75 CALM      30.00S
STAUNTON*      CLOUDY    38  29  71 W3        30.02S
WAYNESBORO*    FAIR      36  27  71 SW5       30.00S

$$

WVZ021-048>050-054>055-021100-
EASTERN WEST VIRGINIA PANHANDLE

CITY           SKY/WX    TMP DP  RH WIND       PRES   REMARKS
MARTINSBURG    MOCLDY    41  26  55 W12       30.00R
PETERSBURG*    CLOUDY    43  29  58 W6        30.02S

$$

VAZ036>039-050-021100-
CENTRAL FOOTHILLS

CITY           SKY/WX    TMP DP  RH WIND       PRES   REMARKS
CHARLOTTESVILL PTCLDY    36  27  69 CALM      30.01R
CULPEPER*      PTCLDY    32  29  89 CALM      30.03R
ORANGE*          N/A     30  30 100 CALM      30.03S
GORDONSVILLE*  FAIR      29  28  95 CALM      30.02R
WARRENTON*     MOCLDY    30  26  83 CALM      30.01S

$$

VAZ055>057-021100-
NORTH AND CENTRAL PIEDMONT

CITY           SKY/WX    TMP DP  RH WIND       PRES   REMARKS
FREDERICKSBRG* CLEAR     32  32 100 CALM      30.03S
STAFFORD*      CLEAR     29  29 100 CALM      30.06S

$$

NCZ024-NYZ072-PAZ021-071-VAZ022-071-021100-
OTHER REGIONAL OBSERVATIONS

CITY           SKY/WX    TMP DP  RH WIND       PRES   REMARKS
NEW YORK CITY  PTCLDY    40  27  59 W9        29.90R
PHILADELPHIA   PTCLDY    40  28  62 W10       29.96R
PITTSBURGH     MOCLDY    37  29  72 W9        29.99R
ROANOKE        CLEAR     42  27  55 NW6       30.05S
RICHMOND       PTCLDY    34  30  85 CALM      30.03S
RALEIGH        CLEAR     36  30  79 CALM      30.07R

$$

ANZ530>537-021100-
MARINE OBSERVATIONS

STATION/POSITION TIME  TEMP    WIND        PRES
                       AIR SEA DIR/SP/G
                 (UTC) (F)     (DEG/KT/KT) (MB)
THOMAS PT LIGHT  1000   45 51  310/ 15/ 16   N/A
BALT KEY BRIDGE  0948   44     260/ 16/ 19 1015.4R
COVE POINT       0942   44     320/  6/  9 1016.9R
LEWISETTA        0942   41 53  290/  4/  5 1016.3S
SOLOMONS ISLAND  0942   42 52  280/  4/  5   N/A
PINEY POINT      0948          350/ 10/ 11   N/A

$$




USA.gov is the U.S. government's official web portal to all federal, state and local government web resources and services.